Regional Weather Roundup
Issued by NWS

Current Version | Previous Version | Text Only | Print | Product List | Glossary On
Versions: 1 2 3 4 5 6 7 8 9 10 11 12 13 14 15 16 17 18 19 20 21 22 23 24 25 26 27 28 29 30 31 32 33 34 35 36 37 38 39 40 41 42 43 44 45 46 47 48 49 50
000
ASCA44 KEWX 251120
RWRMX

LATIN AMERICA AND CARIBBEAN REGIONAL WEATHER ROUNDUP
NATIONAL WEATHER SERVICE AUSTIN/SAN ANTONIO TX
600 AM CDT THU MAY 25 2017

NOTE: "FAIR" INDICATED FEW OR NO CLOUDS BELOW 12,000 FEET WITH NO
SIGNIFICANT WEATHER AND/OR OBSTRUCTIONS TO VISIBILITY.

BAJA CALIFORNIA

CITY           SKY/WX    TMP DP  RH WIND       PRES   REMARKS
S.J. DEL CABO    N/A    N/A N/A N/A MISG        N/A
TIJUANA        CLOUDY    57  46  67 W3        29.88S

NORTHWESTERN MEXICO

CITY           SKY/WX    TMP DP  RH WIND       PRES   REMARKS
HERMOSILLO     MOCLDY    79  63  57 E7        29.75

NORTHEASTERN MEXICO

CITY           SKY/WX    TMP DP  RH WIND       PRES   REMARKS
CHIHUAHUA      CLEAR     61  27  27 S9        29.92
MONCLOVA         N/A    N/A N/A N/A MISG        N/A
MONTERREY      CLEAR     63  59  88 E5        29.78S
REYNOSA        PTCLDY    64  61  88 SE6       29.78
SALTILLO       CLEAR     73  59  60 CALM      30.00
CD. VICTORIA     N/A    N/A N/A N/A MISG        N/A

WESTERN MEXICO

CITY           SKY/WX    TMP DP  RH WIND       PRES   REMARKS
AGUASCALIENTES CLEAR     59  46  63 S9        30.15
COLIMA           N/A    N/A N/A N/A MISG        N/A
DEL BAJIO      CLEAR     66  50  55 CALM      30.19R
GUADALAJARA    CLEAR     63  55  77 CALM      30.12
MAZATLAN       CLEAR     70  68  94 CALM      29.82S
P. VALLARTA    CLOUDY    77  73  88 CALM      29.84R
URUAPAN          N/A    N/A N/A N/A MISG        N/A
ZACATECAS      PTCLDY    61  37  41 S7        30.18

CENTRAL MEXICO

CITY           SKY/WX    TMP DP  RH WIND       PRES   REMARKS
CUERNAVACA       N/A    N/A N/A N/A MISG        N/A
MEXICO CITY    CLOUDY    59  50  72 E5        30.27R
MORELIA        CLEAR     66  59  77 SW9       30.15
POZA RICA        N/A    N/A N/A N/A MISG        N/A
S. LUIS POTOSI PTCLDY    57  55  94 N5        30.12R
TAMPICO        PTCLDY    79  73  83 N8        29.81
TOLUCA         CLOUDY    55  52  88 SE8       30.35R

SOUTHERN MEXICO

CITY           SKY/WX    TMP DP  RH WIND       PRES   REMARKS
ACAPULCO       LGT RAIN  75  72  88 NW12      29.83F
B. DE HUATULCO   N/A    N/A N/A N/A MISG        N/A
OAXACA         MOCLDY    66  61  82 CALM      30.13
P. ESCONDIDO   CLOUDY    79  77  94 CALM      29.89
VERACRUZ       PTCLDY    79  77  94 CALM      29.79

YUCATAN PENINSULA

CITY           SKY/WX    TMP DP  RH WIND       PRES   REMARKS
CAMPECHE       MOCLDY    79  73  83 CALM      29.78
CANCUN         MOCLDY    70  70 100 CALM      29.84R
CHETUMAL       MOCLDY    75  73  94 CALM      29.80
CD. DEL CARMEN CLOUDY    82  79  89 W5        29.79  HX  93
COZUMEL        PTCLDY    77  75  94 CALM      29.81S
MERIDA         MOCLDY    73  72  94 CALM      29.82S
MINATITLAN     PTCLDY    81  77  89 CALM      29.79
TAPACHULA      MOCLDY    77  77 100 CALM      29.83S
TUX. GUTIERREZ CLOUDY    72  70  94 CALM      29.92F
VILLAHERMOSA   CLOUDY    75  72  88 CALM      29.81S

CENTRAL AMERICA

CITY           SKY/WX    TMP DP  RH WIND       PRES   REMARKS
BELIZE CITY    PTCLDY    77  75  94 W5        29.78

CARIBBEAN

CITY           SKY/WX    TMP DP  RH WIND       PRES   REMARKS
ARUBA          PTCLDY    82  77  83 E17       29.92R HX  91
CURACAO        LGT RAIN  82  73  74 E12       29.94S
KINGSTON       PTCLDY    82  73  74 SE18      29.92R
NASSAU         PTCLDY    82  79  89 S8        29.91S HX  93
SAN JUAN       MOSUNNY   81  73  78 E5        30.09R
SANTO DOMINGO  MOSUNNY   77  75  94 NE5       30.03R
ST. CROIX      MOSUNNY   81  73  78 NE9       30.09
ST. KITTS      MOSUNNY   82  73  74 E12       30.09R
ST. MAARTEN    MOSUNNY   81  75  83 E9        30.09R
ST. THOMAS     MOSUNNY   84  73  70 E10       30.08  HX  91

$$





USA.gov is the U.S. government's official web portal to all federal, state and local government web resources and services.